Wind_Speed
4 6 8 10 13 16 19 21 23 25 28 31 32 33 35 36 38 41 43 45 46 48 50 51 53 53 53 54 54 55 55 56 55 54 54 53 53 53 53 52 51 50 48
5 6 8 9 11 13 16 18 20 23 26 28 30 32 34 37 39 41 43 44 45 47 49 50 51 54 55 55 56 57 56 56 57 57 56 56 56 56 56 55 54 52 51
8 9 10 11 13 15 17 19 21 23 26 28 31 33 35 37 38 40 41 43 46 48 50 52 53 55 55 56 57 57 57 58 59 59 59 59 59 59 58 57 56 54 53
10 12 13 14 16 18 20 22 24 26 29 30 32 34 35 38 39 41 43 46 47 49 50 51 53 56 57 58 59 59 59 60 61 62 61 60 60 60 60 59 58 56 54
13 14 16 17 19 21 24 26 27 29 31 33 34 36 38 40 42 44 45 47 49 50 52 53 55 56 58 60 61 62 63 63 64 64 64 64 63 63 61 59 58 58 57
16 17 19 21 23 25 26 27 29 30 32 34 36 38 41 43 45 46 47 49 51 53 55 55 56 58 59 61 63 64 66 66 66 66 66 66 65 64 61 61 60 60 59
19 21 23 24 26 28 29 31 32 34 36 38 40 41 43 45 47 49 51 52 54 56 58 59 60 62 63 64 65 67 67 68 69 70 69 67 66 64 64 63 63 62 61
23 25 26 28 30 31 32 34 36 38 40 42 44 46 48 50 52 54 56 57 59 60 62 63 64 65 67 68 69 70 70 70 71 72 71 70 68 67 66 66 66 65 64
27 29 31 32 34 35 36 38 40 42 44 46 48 50 53 55 57 58 60 62 63 64 66 67 68 68 69 71 71 72 72 73 73 73 73 72 71 70 69 69 68 67 66
31 33 35 36 37 38 40 42 44 46 48 50 52 54 56 58 60 61 63 64 66 67 68 69 70 70 70 72 73 74 73 73 74 74 74 73 72 72 71 70 69 67 67
35 37 38 39 41 42 44 46 47 49 51 53 55 57 58 59 61 63 65 66 67 68 69 70 71 72 71 72 73 72 72 73 74 74 74 74 73 72 71 70 69 67 65
39 41 42 43 45 46 48 49 51 53 54 56 57 59 60 61 62 63 65 66 67 67 68 69 70 70 70 69 70 70 71 72 72 72 72 72 71 71 70 69 68 66 64
42 44 45 46 48 49 51 52 53 55 57 58 59 60 62 63 64 64 65 66 66 66 66 66 67 67 66 65 65 67 67 68 68 68 68 68 68 68 68 68 67 64 62
45 46 47 48 50 51 52 54 55 57 59 60 61 62 63 63 63 63 63 63 63 63 62 62 62 63 63 61 61 62 63 63 64 64 63 63 63 63 63 63 63 63 62
47 48 49 51 52 53 55 56 58 60 61 62 63 63 63 62 61 61 60 59 58 58 58 58 57 57 58 58 57 57 57 57 57 58 57 56 55 55 56 57 58 59 59
48 50 51 52 53 55 56 58 59 61 62 64 63 62 61 60 58 56 55 55 54 54 54 53 52 51 52 52 52 51 51 50 50 50 50 49 49 49 49 50 52 53 53
50 51 52 53 54 55 57 58 58 60 62 62 61 59 58 56 55 53 52 52 52 52 50 49 48 47 47 47 46 45 44 44 43 42 43 43 42 43 44 45 45 46 48
51 52 53 54 55 56 57 58 59 59 59 58 58 56 55 54 53 51 51 50 50 49 47 45 44 42 42 41 40 38 38 37 37 36 36 37 38 39 40 40 42 43 44
52 52 53 55 56 56 57 58 58 58 57 56 55 53 52 52 51 50 49 48 47 45 43 40 39 37 36 35 34 33 32 32 32 32 33 33 35 36 37 38 40 43 43
52 53 54 55 56 56 57 57 57 56 55 54 52 51 49 49 49 48 46 44 42 40 38 36 33 32 31 30 29 29 28 27 27 29 30 30 30 33 35 37 39 42 43
52 53 54 55 55 56 56 55 54 53 52 51 50 49 48 47 46 44 42 39 38 36 33 31 28 26 25 24 24 24 24 25 24 25 28 29 29 30 33 35 38 40 42
53 53 54 54 54 54 53 53 51 50 49 49 48 47 46 44 42 40 38 36 34 32 29 26 23 21 20 19 20 21 22 22 23 23 25 27 28 29 31 34 35 38 40
52 52 52 52 52 51 51 50 49 48 47 47 46 43 41 40 38 37 34 32 30 28 26 23 19 17 16 16 16 17 19 20 21 21 22 25 27 28 29 33 35 36 38
51 51 50 50 50 50 49 48 46 46 45 44 42 40 38 36 34 33 31 29 27 25 22 19 16 14 12 12 13 14 16 18 19 20 20 22 25 28 29 31 34 35 37
49 49 48 48 49 48 46 45 44 43 42 41 39 37 35 33 31 30 28 26 24 21 19 16 14 11 9 8 9 11 14 16 17 18 20 21 23 26 28 30 33 34 36
47 47 47 47 47 46 44 43 42 41 39 38 36 34 32 30 28 27 25 23 21 19 16 14 12 9 6 5 6 8 11 13 16 18 19 21 22 24 27 29 31 33 35
Wind_Direction
253 254 256 256 254 254 254 254 255 256 256 257 256 254 253 252 253 255 255 254 256 258 259 258 259 260 260 261 261 261 261 261 261 261 262 263 264 265 265 266 267 267 266
291 278 273 272 269 267 266 265 263 261 263 262 259 258 257 257 257 257 256 256 257 258 259 259 260 260 260 261 261 261 261 262 262 262 262 263 263 264 266 266 266 265 265
306 299 292 288 283 281 279 277 274 272 271 269 265 264 264 264 263 262 260 260 259 260 261 260 261 261 261 261 261 261 262 262 263 263 262 263 263 263 265 265 265 263 264
302 302 300 295 292 289 288 285 282 280 278 276 274 271 268 267 267 266 264 264 263 263 263 262 262 261 262 262 262 262 262 262 263 263 263 264 264 264 264 264 263 263 263
306 303 300 298 296 293 290 288 285 282 280 279 277 275 274 272 270 269 268 267 266 265 265 265 265 264 264 263 263 263 263 263 264 264 264 264 264 264 264 263 262 262 262
309 306 303 299 298 296 295 292 289 287 286 283 281 280 278 277 275 273 272 271 271 270 269 269 268 266 266 266 266 265 265 265 264 264 264 264 265 264 262 262 262 261 262
310 308 306 304 301 299 296 294 292 291 290 289 286 285 283 282 281 278 277 275 274 273 271 270 270 269 269 268 267 266 266 265 264 264 264 264 264 263 263 262 262 262 262
312 310 309 307 305 303 300 297 296 295 294 292 291 288 287 285 283 281 280 278 277 275 274 273 272 271 271 269 268 267 266 266 265 265 264 264 263 263 263 262 262 262 261
310 309 308 307 305 303 301 300 298 297 296 295 293 291 288 287 286 284 282 281 279 277 276 275 274 273 272 270 269 268 267 267 266 265 264 263 262 262 261 261 261 261 260
309 309 308 307 305 303 302 301 300 298 297 296 295 293 291 288 286 285 284 283 281 279 277 276 275 274 274 272 271 269 267 266 264 264 264 263 261 261 260 259 259 258 258
309 309 308 306 304 303 302 301 300 299 299 298 297 296 294 291 289 287 286 285 283 281 279 277 276 275 274 273 271 269 267 265 264 263 262 261 260 260 258 257 256 256 255
308 308 307 306 305 304 303 303 302 301 301 300 300 299 297 295 292 290 288 287 285 284 281 279 277 276 275 273 271 269 267 266 264 263 261 260 259 258 256 254 253 253 252
308 307 307 306 306 305 305 305 304 304 304 303 303 302 301 298 296 294 291 289 288 286 283 281 279 277 275 274 272 270 268 266 264 262 261 260 258 257 254 252 251 249 248
308 308 308 307 307 307 307 307 307 306 306 305 305 304 304 302 299 297 294 292 290 287 285 283 280 278 277 274 272 270 268 266 263 262 260 259 258 255 252 249 248 247 245
309 309 309 308 308 308 309 309 308 308 308 308 307 306 306 305 303 300 297 295 293 290 288 285 282 279 278 276 273 270 268 266 263 260 258 256 254 251 248 246 244 243 242
310 310 309 309 309 310 310 311 310 310 310 310 310 309 308 307 305 303 301 299 296 293 291 288 283 280 279 277 274 271 268 265 262 258 254 252 250 247 245 243 241 240 238
311 311 311 311 311 312 312 312 312 312 313 313 312 311 310 309 308 306 304 302 300 297 294 290 286 282 279 278 275 271 267 263 260 255 252 248 246 243 240 237 235 234 232
312 312 313 313 313 314 314 314 314 314 315 314 314 313 313 312 311 309 307 306 303 300 296 292 288 283 279 277 273 269 264 260 256 252 249 244 242 239 236 233 229 227 225
313 314 314 314 315 315 315 316 316 316 316 316 315 314 314 314 313 311 309 308 306 303 299 295 289 284 279 275 270 265 261 256 250 247 244 242 240 235 232 228 225 220 218
315 315 316 316 316 316 317 317 317 317 317 317 316 316 315 314 314 313 312 311 310 308 304 298 292 285 279 273 267 262 255 250 246 242 238 236 234 231 227 223 220 217 214
316 316 317 317 317 318 318 319 319 319 319 318 318 317 317 316 316 316 316 314 314 312 310 304 296 287 279 272 263 256 251 244 239 236 232 231 230 226 223 219 215 212 210
317 317 318 319 319 319 320 320 320 320 320 320 320 320 320 320 320 320 320 319 319 318 316 311 301 290 282 272 262 250 243 239 235 231 228 226 225 222 219 215 211 209 208
317 318 319 320 321 321 322 322 322 322 322 322 322 322 322 323 324 324 324 323 323 323 321 318 309 296 283 271 258 245 236 233 230 226 223 220 218 216 214 211 208 206 205
318 319 320 321 322 322 323 323 324 324 325 325 325 325 325 326 326 327 327 326 326 326 325 323 318 307 288 270 253 241 232 227 225 220 218 215 212 211 209 207 205 203 203
319 320 321 322 323 323 324 324 325 326 327 328 328 328 329 329 330 330 330 330 330 329 330 329 325 316 298 273 251 238 229 224 221 216 214 211 208 207 205 204 204 203 202
320 321 322 322 323 324 325 325 326 327 328 329 330 331 332 333 334 334 334 335 336 336 335 335 334 329 312 278 248 232 225 219 214 209 207 206 205 204 202 202 202 202 202
Height
5638 5638 5639 5640 5641 5642 5643 5644 5645 5645 5646 5646 5647 5647 5648 5649 5650 5650 5651 5652 5653 5654 5654 5655 5656 5658 5658 5659 5660 5661 5662 5663 5665 5668 5669 5670 5671 5673 5674 5676 5677 5679 5680
5638 5638 5638 5638 5639 5639 5640 5640 5640 5640 5640 5640 5639 5639 5640 5640 5641 5641 5641 5641 5641 5641 5642 5642 5643 5644 5644 5645 5645 5646 5647 5648 5650 5652 5654 5655 5657 5658 5659 5661 5663 5664 5665
5637 5636 5636 5636 5636 5636 5636 5635 5635 5634 5634 5633 5632 5632 5631 5631 5630 5630 5629 5629 5629 5629 5629 5629 5630 5630 5629 5630 5630 5631 5632 5633 5634 5636 5638 5639 5641 5642 5643 5645 5647 5649 5650
5635 5635 5634 5633 5633 5632 5631 5630 5629 5628 5626 5625 5624 5623 5622 5621 5620 5619 5618 5617 5616 5615 5615 5614 5614 5614 5614 5614 5614 5615 5615 5616 5617 5618 5620 5622 5623 5625 5626 5628 5630 5633 5635
5634 5632 5631 5630 5629 5627 5625 5624 5622 5620 5618 5616 5614 5612 5611 5609 5608 5606 5605 5604 5602 5601 5599 5598 5597 5597 5596 5596 5596 5597 5597 5597 5598 5600 5602 5603 5605 5607 5609 5611 5613 5615 5617
5631 5629 5627 5625 5623 5621 5618 5616 5614 5611 5609 5606 5604 5601 5599 5596 5594 5592 5590 5588 5587 5585 5583 5581 5580 5579 5578 5577 5577 5577 5578 5578 5579 5580 5582 5584 5587 5588 5590 5592 5594 5596 5600
5627 5624 5622 5619 5616 5614 5611 5608 5605 5602 5599 5595 5592 5589 5585 5582 5579 5576 5574 5572 5570 5567 5565 5563 5561 5559 5557 5556 5556 5556 5556 5556 5558 5559 5561 5564 5566 5569 5570 5572 5574 5577 5581
5621 5619 5616 5612 5609 5605 5602 5598 5595 5591 5587 5583 5578 5574 5571 5567 5563 5559 5556 5553 5550 5547 5545 5542 5540 5538 5536 5534 5533 5533 5533 5534 5535 5536 5540 5543 5545 5547 5549 5552 5554 5557 5560
5615 5612 5608 5604 5600 5596 5592 5588 5583 5579 5574 5569 5564 5559 5554 5549 5544 5539 5535 5532 5528 5525 5522 5519 5517 5515 5512 5510 5509 5509 5510 5510 5510 5512 5515 5518 5521 5524 5526 5528 5531 5535 5539
5608 5604 5600 5595 5590 5586 5581 5576 5571 5566 5560 5554 5548 5542 5536 5530 5524 5519 5513 5509 5506 5502 5499 5495 5492 5490 5487 5484 5483 5483 5484 5484 5485 5487 5489 5492 5495 5499 5501 5504 5509 5512 5516
5600 5595 5590 5585 5580 5575 5569 5564 5558 5552 5546 5539 5532 5524 5517 5510 5503 5497 5491 5486 5481 5478 5474 5471 5467 5464 5461 5459 5457 5457 5457 5457 5459 5461 5464 5466 5469 5473 5477 5480 5485 5489 5494
5590 5585 5579 5574 5568 5562 5556 5550 5543 5536 5529 5522 5514 5505 5497 5489 5482 5475 5468 5462 5457 5453 5449 5445 5442 5438 5435 5433 5431 5430 5430 5431 5433 5435 5438 5441 5444 5448 5452 5456 5461 5467 5473
5580 5574 5568 5561 5555 5549 5542 5535 5528 5521 5513 5505 5496 5487 5478 5468 5460 5453 5446 5439 5433 5428 5424 5420 5416 5413 5410 5408 5406 5405 5404 5405 5407 5410 5413 5417 5420 5423 5427 5433 5438 5444 5451
5568 5562 5555 5549 5542 5535 5528 5520 5512 5504 5496 5487 5478 5469 5459 5449 5440 5431 5424 5417 5410 5404 5400 5396 5392 5389 5386 5384 5383 5381 5381 5381 5383 5386 5390 5393 5396 5400 5405 5410 5416 5423 5430
5557 5550 5543 5536 5529 5521 5513 5504 5496 5487 5478 5469 5459 5450 5440 5431 5420 5411 5403 5396 5389 5383 5378 5374 5370 5367 5365 5362 5360 5359 5359 5359 5361 5364 5367 5371 5375 5379 5384 5390 5396 5402 5410
5545 5538 5530 5523 5515 5507 5499 5490 5479 5470 5460 5450 5440 5430 5421 5412 5402 5394 5385 5378 5370 5364 5359 5354 5350 5347 5345 5342 5340 5339 5339 5340 5342 5344 5348 5353 5357 5362 5367 5372 5378 5385 5393
5533 5525 5518 5510 5501 5493 5484 5475 5465 5455 5443 5433 5423 5413 5404 5395 5386 5377 5369 5362 5354 5347 5341 5336 5332 5329 5327 5324 5323 5322 5323 5323 5325 5328 5332 5337 5341 5346 5351 5357 5363 5370 5378
5520 5512 5504 5496 5488 5479 5469 5460 5450 5441 5430 5419 5408 5398 5389 5380 5371 5362 5355 5347 5339 5331 5325 5320 5316 5313 5311 5309 5308 5308 5308 5309 5312 5315 5319 5323 5327 5332 5337 5343 5350 5357 5365
5507 5499 5491 5482 5474 5464 5455 5445 5435 5425 5415 5406 5395 5385 5376 5366 5357 5348 5340 5333 5325 5318 5311 5306 5302 5299 5297 5295 5294 5295 5296 5298 5301 5304 5308 5312 5316 5321 5326 5332 5339 5346 5354
5495 5486 5478 5469 5460 5451 5441 5431 5422 5412 5402 5392 5383 5374 5364 5355 5346 5336 5328 5320 5313 5306 5299 5294 5290 5287 5285 5284 5284 5284 5286 5288 5291 5295 5298 5302 5306 5311 5316 5322 5329 5337 5345
5482 5474 5465 5456 5447 5438 5428 5418 5409 5399 5390 5380 5370 5361 5352 5343 5334 5325 5317 5309 5302 5295 5289 5284 5280 5277 5275 5274 5275 5276 5278 5281 5283 5287 5291 5295 5299 5303 5308 5314 5321 5329 5337
5470 5462 5453 5444 5434 5425 5416 5406 5397 5388 5378 5369 5360 5350 5341 5332 5324 5315 5308 5300 5293 5287 5281 5276 5272 5270 5268 5267 5268 5269 5272 5274 5277 5280 5284 5288 5292 5297 5302 5308 5315 5322 5330
5458 5450 5441 5432 5423 5414 5404 5395 5386 5377 5368 5359 5350 5341 5332 5323 5315 5308 5300 5293 5287 5281 5275 5271 5267 5264 5262 5262 5262 5264 5266 5269 5272 5275 5278 5282 5287 5292 5297 5303 5310 5317 5325
5447 5438 5430 5421 5412 5403 5394 5385 5376 5368 5359 5350 5341 5332 5324 5316 5309 5301 5294 5288 5282 5276 5271 5267 5263 5260 5259 5258 5258 5260 5262 5264 5267 5271 5275 5279 5283 5288 5294 5300 5307 5314 5321
5436 5428 5420 5411 5403 5394 5385 5376 5368 5359 5350 5342 5333 5325 5317 5310 5303 5296 5290 5284 5278 5273 5269 5265 5261 5258 5256 5256 5256 5257 5259 5261 5264 5268 5272 5276 5281 5286 5291 5297 5304 5311 5318
5426 5418 5410 5402 5393 5385 5376 5368 5359 5351 5343 5335 5327 5319 5312 5305 5298 5292 5286 5281 5276 5271 5267 5263 5260 5258 5256 5255 5255 5256 5257 5259 5262 5266 5270 5274 5279 5284 5289 5295 5301 5308 5315